JQ1YUX-13 Tokyo Ota-ku JP current weather conditions

sailwx.info

Wind from 333

Air temperature 5.0° C
Dewpoint 1.1° C

Last reported at 2016-Feb-09 14:45 UTC.
Time now 2016-Feb-09 15:57 UTC

Location: N 35°35' E 139°40'.
View on Google Maps.

See reports from other nearby stations

  
Tides and Currents Weather Stations Pressure Air Temp Water Temp Dewpoint Dewpoint Depression Visibility Wind Speed Wind Dir Waves Ship Positions
date/time (UTC)wind fromknots sea level pressurealtimeterstation pressurevisibilityair tempwater tempwave heightnotes
2016-Feb-09 14:45 333 5.0
2016-Feb-09 14:18 009 5.0
2016-Feb-09 14:15 014 5.0
2016-Feb-09 13:48 330 5.6
2016-Feb-09 13:45 321 5.6
2016-Feb-09 13:18 346 6.1
2016-Feb-09 13:15 026 6.1
2016-Feb-09 12:48 337 6.1
2016-Feb-09 12:45 336 6.1
2016-Feb-09 12:18 336 6.7
2016-Feb-09 12:15 336 6.7
2016-Feb-09 11:48 336 6.7
2016-Feb-09 11:45 336 6.7
2016-Feb-09 11:18 335 6.7
2016-Feb-09 11:15 335 6.7
2016-Feb-09 10:48 335 7.2
2016-Feb-09 10:45 336 7.8
2016-Feb-09 10:18 350 7.8
2016-Feb-09 10:15 307 7.8
2016-Feb-09 09:48 325 8.3
2016-Feb-09 09:45 321 8.3
2016-Feb-09 09:18 347 8.9
2016-Feb-09 09:15 025 8.9
2016-Feb-09 08:48 321 10.6
2016-Feb-09 08:45 334 10.6
2016-Feb-09 08:18 334 11.1
2016-Feb-09 08:15 334 11.1
2016-Feb-09 07:48 030 11.7
2016-Feb-09 07:45 036 11.7
2016-Feb-09 07:18 351 12.8
2016-Feb-09 07:15 340 12.8
2016-Feb-09 06:48 304 13.3
2016-Feb-09 06:45 333 13.3
2016-Feb-09 06:18 244 12.8
2016-Feb-09 06:15 257 12.8
2016-Feb-09 05:48 232 12.2
2016-Feb-09 05:45 148 12.2
2016-Feb-09 05:18 217 12.2
2016-Feb-09 05:15 218 12.2
2016-Feb-09 04:48 186 12.2
2016-Feb-09 04:45 194 12.2
2016-Feb-09 04:18 206 12.8
2016-Feb-09 04:15 213 12.8
2016-Feb-09 03:48 233 12.8
2016-Feb-09 03:45 207 12.8
2016-Feb-09 03:18 223 13.3
2016-Feb-09 03:15 256 12.8
2016-Feb-09 02:48 156 12.2
2016-Feb-09 02:45 191 11.7
2016-Feb-09 02:18 221 11.1
2016-Feb-09 02:15 226 11.1
2016-Feb-09 01:48 187 10.6
2016-Feb-09 01:45 171 10.6
2016-Feb-09 01:18 226 10.0
2016-Feb-09 01:15 235 9.4
2016-Feb-09 00:48 200 7.2
2016-Feb-09 00:45 211 7.2
2016-Feb-09 00:18 200 5.6
2016-Feb-09 00:15 217 1 gusting 3 5.0
2016-Feb-08 23:48 298 2.2
2016-Feb-08 23:45 299 2.2
2016-Feb-08 23:18 298 1.1
2016-Feb-08 23:15 299 1.1
2016-Feb-08 22:48 298 1.1
2016-Feb-08 22:45 298 1.1
2016-Feb-08 22:18 299 0.6
2016-Feb-08 22:15 298 0.6
2016-Feb-08 21:48 298 0.6
2016-Feb-08 21:45 299 0.6
2016-Feb-08 21:18 298 0.6
2016-Feb-08 21:15 298 0.6
2016-Feb-08 20:48 300 0.6
2016-Feb-08 20:45 298 0.6
2016-Feb-08 20:18 300 1.1
2016-Feb-08 20:15 299 1.1
2016-Feb-08 19:48 299 1.1
2016-Feb-08 19:45 299 1.1
2016-Feb-08 19:18 298 1.1
2016-Feb-08 19:15 299 1.1
2016-Feb-08 18:48 299 1.1
2016-Feb-08 18:45 299 1.1
2016-Feb-08 18:18 298 1.1
2016-Feb-08 18:15 300 1.1
2016-Feb-08 17:48 299 1.7
2016-Feb-08 17:45 298 1.7
2016-Feb-08 17:18 298 1.7
2016-Feb-08 17:15 299 1.7
2016-Feb-08 16:48 298 1.7
2016-Feb-08 16:45 299 1.7
2016-Feb-08 16:18 298 2.2
2016-Feb-08 16:15 298 2.2
2016-Feb-08 15:48 311 2.2
2016-Feb-08 15:45 313 2.2
2016-Feb-08 15:18 313 2.8
2016-Feb-08 15:15 312 2.8
2016-Feb-08 14:48 313 2.8
2016-Feb-08 14:45 312 2.8
2016-Feb-08 14:18 329 3.3
2016-Feb-08 14:15 018 3.3
2016-Feb-08 13:48 018 3.9
2016-Feb-08 13:45 018 3.9
2016-Feb-08 13:18 018 3.9
2016-Feb-08 13:15 018 3.9
2016-Feb-08 12:48 018 4.4
2016-Feb-08 12:45 017 4.4
2016-Feb-08 12:18 018 4.4
2016-Feb-08 12:15 018 4.4
2016-Feb-08 11:48 018 5.0
2016-Feb-08 11:45 017 5.0
2016-Feb-08 11:18 018 5.6
2016-Feb-08 11:15 018 5.6
2016-Feb-08 10:48 018 5.6
2016-Feb-08 10:45 017 5.6
2016-Feb-08 10:18 018 6.1
2016-Feb-08 10:15 018 6.1
2016-Feb-08 09:48 063 6.7
2016-Feb-08 09:45 063 6.7
2016-Feb-08 09:18 036 7.2
2016-Feb-08 09:15 042 7.2
2016-Feb-08 08:48 325 7.2
2016-Feb-08 08:45 325 7.8
2016-Feb-08 08:18 323 8.3
2016-Feb-08 08:15 325 8.3
2016-Feb-08 07:48 325 8.9
2016-Feb-08 07:45 325 8.9
2016-Feb-08 07:18 350 9.4
2016-Feb-08 07:15 336 9.4
2016-Feb-08 06:48 9.4
2016-Feb-08 06:45 041 8.9
2016-Feb-08 06:18 025 8.9
2016-Feb-08 06:15 355 8.3
2016-Feb-08 05:48 033 8.9
2016-Feb-08 05:45 315 8.9
2016-Feb-08 05:18 021 8.9
2016-Feb-08 05:15 022 8.3
2016-Feb-08 04:48 336 7.2
2016-Feb-08 04:45 337 7.2
2016-Feb-08 04:18 029 7.8
2016-Feb-08 04:15 342 7.2
2016-Feb-08 03:48 025 7.8
2016-Feb-08 03:45 340 7.2
2016-Feb-08 03:18 341 7.2
2016-Feb-08 03:15 351 7.2
2016-Feb-08 02:48 355 7.2
2016-Feb-08 02:45 021 6.7
2016-Feb-08 02:18 340 6.1
2016-Feb-08 02:15 030 6.1
2016-Feb-08 01:48 5.6
2016-Feb-08 01:45 342 5.6
2016-Feb-08 01:18 284 5.0
2016-Feb-08 01:15 349 5.0
2016-Feb-08 00:48 330 4.4
2016-Feb-08 00:45 349 4.4
2016-Feb-08 00:18 342 3.9
2016-Feb-08 00:15 343 3.9
2016-Feb-07 23:48 051 3.3
2016-Feb-07 23:45 310 3.3
2016-Feb-07 23:18 030 2.8
2016-Feb-07 23:15 338 2.8
2016-Feb-07 22:48 347 2.2
2016-Feb-07 22:45 032 2.2
2016-Feb-07 22:18 321 1.7
2016-Feb-07 22:15 304 1.7
2016-Feb-07 21:48 327 1.7
2016-Feb-07 21:45 326 1.7
2016-Feb-07 21:18 327 1.7
2016-Feb-07 21:15 327 1.7
2016-Feb-07 20:48 327 1.1
2016-Feb-07 20:45 327 1.1
2016-Feb-07 20:18 327 1.7
2016-Feb-07 20:15 326 1.7
2016-Feb-07 19:48 326 1.7
2016-Feb-07 19:45 327 1.7
2016-Feb-07 19:18 327 1.7
2016-Feb-07 19:15 326 1.7
2016-Feb-07 18:48 328 2.2
2016-Feb-07 18:45 327 2.2
2016-Feb-07 18:18 326 2.2
2016-Feb-07 18:15 326 2.2
2016-Feb-07 17:48 325 2.2
2016-Feb-07 17:45 2.2
2016-Feb-07 17:18 330 2.2
2016-Feb-07 17:15 330 2.2
2016-Feb-07 16:48 339 2.8
2016-Feb-07 16:45 338 2.2
2016-Feb-07 16:18 338 2.8
2016-Feb-07 16:15 338 2.8
2016-Feb-07 15:48 338 3.3
2016-Feb-07 15:45 339 3.3
2016-Feb-07 15:18 345 3.3
2016-Feb-07 15:15 344 3.3